• Join FlightAware (Why Join?)
  • Login
  • US Flag 
09:50AM EST


 

Airport Tracker/Info


-or-


 

Live Flight TrackerFlight Track Log ✈ N974BC ✈ 13-Aug-2014 ✈ KEYW - KTMB

Flight Track Log - Related Links

Times and Time Zones

All times are in EDT time to prevent confusion due to time zone crossing. See the N974BC flight status page for this flight to view local times or setup timezone preferences in your user account.

Time Position Orientation Groundspeed Altitude Reporting Facility
EDT Latitude Longitude Course Direction KTS MPH feet Rate Location/Type
06:23PM 24.6069 -81.5875 49° Northeast 87 100 4,900  Level Miami Center
06:24PM 24.6103 -81.5603 82° East 87 100 5,500 540 Climbing Miami Center
06:25PM 24.6131 -81.5339 83° East 87 100 6,100 480 Climbing Miami Center
06:26PM 24.6119 -81.5058 92° East 88 101 6,600 480 Climbing Miami Center
06:27PM 24.7655 -81.4765 49° Northeast  Level FlightAware Approximate
06:27PM 24.6122 -81.4783 89° East 88 101 7,100  Level Miami Center
06:28PM 24.7875 -81.4490 49° Northeast  Level FlightAware Approximate
06:28PM 24.6164 -81.4500 81° East 89 102 7,700  Level Miami Center
06:29PM 24.6247 -81.4222 72° East 91 105 8,100 420 Climbing Miami Center
06:30PM 24.6322 -81.3964 72° East 91 105 8,600 480 Climbing Miami Center
06:31PM 24.6364 -81.3644 82° East 91 105 9,200 480 Climbing Miami Center
06:32PM 24.6381 -81.3375 86° East 90 104 9,600 120 Climbing Miami Center
06:33PM 24.6394 -81.3058 87° East 94 108 9,500 -60 Descending Miami Center
06:34PM 24.6464 -81.2758 76° East 99 114 9,500  Level Miami Center
06:35PM 24.6544 -81.2458 74° East 99 114 9,600  Climbing Miami Center
06:36PM 24.6619 -81.2142 75° East 101 116 9,600 -60 Level Miami Center
06:37PM 24.6683 -81.1836 77° East 102 117 9,500 -60 Descending Miami Center
06:38PM 24.6772 -81.1542 72° East 102 117 9,500  Level Miami Center
06:39PM 24.6878 -81.1206 71° East 101 116 9,500  Level Miami Center
06:40PM 24.6939 -81.0906 77° East 100 115 9,500  Level Miami Center
06:41PM 24.7019 -81.0592 74° East 102 117 9,500  Level Miami Center
06:42PM 24.7139 -81.0314 65° Northeast 102 117 9,600  Climbing Miami Center
06:43PM 24.7258 -81.0031 65° Northeast 102 117 9,600  Level Miami Center
06:44PM 24.7358 -80.9733 70° East 102 117 9,600  Level Miami Center
06:45PM 24.7511 -80.9461 58° Northeast 102 117 9,600  Level Miami Center
06:46PM 24.7658 -80.9111 65° Northeast 102 117 9,600  Level Miami Center
06:47PM 24.7800 -80.8836 60° Northeast 103 119 9,600  Level Miami Center
06:48PM 24.7922 -80.8531 66° East 104 120 9,600  Level Miami Center
06:49PM 24.8042 -80.8225 67° East 105 121 9,600 -60 Level Miami Center
06:50PM 24.8203 -80.7942 58° Northeast 106 122 9,500 -60 Descending Miami Center
06:51PM 24.8336 -80.7647 63° Northeast 107 123 9,500  Level Miami Center
06:52PM 24.8467 -80.7356 64° Northeast 107 123 9,500  Level Miami Center
06:54PM 24.8603 -80.7061 63° Northeast 107 123 9,500  Level Miami Center
06:55PM 24.8811 -80.6744 54° Northeast 107 123 9,500  Level Miami Center
06:56PM 24.9039 -80.6544 39° Northeast 107 123 9,500  Level Miami Center
06:57PM 24.9272 -80.6364 35° Northeast 106 122 9,500  Level Miami Center
06:58PM 24.9425 -80.6083 59° Northeast 104 120 9,500  Level Miami Center
06:59PM 24.9561 -80.5803 62° Northeast 104 120 9,500  Level Miami Center
07:00PM 24.9722 -80.5525 57° Northeast 105 121 9,600  Climbing Miami Center
07:01PM 24.9894 -80.5261 54° Northeast 105 121 9,600  Level Miami Center
07:01PM 25.0042 -80.5147 35° Northeast 108 124 9,600  Level Miami Center
07:02PM 25.0172 -80.5008 44° Northeast 105 121 9,600  Level Miami Center
07:02PM 25.0222 -80.4931 55° Northeast 108 124 9,600 -120 Level Miami Center
07:03PM 25.0375 -80.4764 45° Northeast 106 122 9,500 -120 Descending Miami Center
07:03PM 25.0428 -80.4672 58° Northeast 107 123 9,500 -540 Level Miami Center
07:04PM 25.0542 -80.4486 56° Northeast 106 122 9,000 -900 Descending Miami Center
07:04PM 25.0633 -80.4433 28° Northeast 111 128 8,600 -1,080 Descending Miami Center
07:05PM 25.0842 -80.4464 352° North 117 135 7,900 -1,020 Descending Miami Center
07:05PM 25.0919 -80.4525 325° Northwest 113 130 7,600 -1,080 Descending Miami Center
07:06PM 25.1092 -80.4664 324° Northwest 113 130 6,800 -1,200 Descending Miami Center
07:06PM 25.1181 -80.4731 326° Northwest 111 128 6,400 -1,140 Descending Miami Center
07:07PM 25.1492 -80.4778 352° North 103 119 5,400 -900 Descending Miami Center
07:08PM 25.1647 -80.4831 343° North 104 120 4,900 -900 Descending Miami Center
07:08PM 25.1758 -80.4867 344° North 102 117 4,500 -540 Descending Miami Center
07:09PM 25.1922 -80.4894 351° North 103 119 4,400  Descending Miami Center
07:09PM 25.2067 -80.4936 345° North 97 112 4,500 60 Climbing Miami Center
07:10PM 25.2231 -80.5000 341° North 98 113 4,500  Level Miami Center
07:10PM 25.2356 -80.5028 349° North 101 116 4,500  Level Miami Center
07:11PM 25.2522 -80.5053 352° North 104 120 4,500  Level Miami Center
07:11PM 25.2622 -80.5097 338° Northwest 106 122 4,500 60 Level Miami Center
07:12PM 25.2797 -80.5144 346° North 106 122 4,600 60 Climbing Miami Center
07:12PM 25.2889 -80.5164 349° North 103 119 4,600  Level Miami Center
07:13PM 25.3072 -80.5225 343° North 104 120 4,600  Level Miami Center
07:13PM 25.3178 -80.5256 345° North 105 121 4,600 -240 Level Miami Center
07:14PM 25.3353 -80.5306 346° North 104 120 4,400 -420 Descending Miami Center
07:14PM 25.3444 -80.5344 339° North 96 110 4,200 -540 Descending Miami Center
07:15PM 25.3589 -80.5372 350° North 94 108 3,900 -540 Descending Miami Center
07:15PM 25.3692 -80.5411 341° North 87 100 3,700 -540 Descending Miami Center
07:16PM 25.3828 -80.5411 360° North 89 102 3,400 -420 Descending Miami Center
07:16PM 25.3919 -80.5428 351° North 88 101 3,300 60 Descending Miami Center
07:17PM 25.4072 -80.5467 347° North 89 102 3,500 240 Climbing Miami Center
07:17PM 25.4167 -80.5494 345° North 90 104 3,600 60 Climbing Miami Center
07:18PM 25.4386 -80.5533 351° North 91 105 3,600 -120 Level Miami Center
07:18PM 25.4436 -80.5561 333° Northwest 97 112 3,500 -300 Descending Miami Center
07:19PM 25.4683 -80.5578 357° North 98 113 3,300 -420 Descending Miami Center
07:19PM 25.4706 -80.5583 347° North 96 110 3,100 -600 Descending Miami Center
07:20PM 25.4944 -80.5617 353° North 98 113 2,700 -540 Descending Miami Center
07:20PM 25.4978 -80.5606 17° North 92 106 2,600 -480 Descending Miami Center
07:21PM 25.5225 -80.5647 351° North 96 110 2,200 -540 Descending Miami Center
07:22PM 25.5483 -80.5697 350° North 95 109 1,700 -360 Descending Miami Center
07:23PM 25.5714 -80.5769 344° North 95 109 1,500 -60 Descending Miami Center
07:24PM 25.5906 -80.5961 318° Northwest 94 108 1,600  Climbing Miami Center
07:25PM 25.5986 -80.6217 289° West 84 97 1,600  Level Miami Center
07:26PM 25.6094 -80.6481 294° West 90 104 1,600  Level Miami Center
07:27PM 25.6267 -80.6639 320° Northwest 98 113 1,600 -60 Level Miami Center
07:28PM 25.6353 -80.6361 71° East 93 107 1,500 -60 Descending Miami Center
07:29PM 25.6369 -80.6108 86° East 92 106 1,500  Level Miami Center
07:30PM 25.6381 -80.5786 88° East 92 106 1,500  Level Miami Center
07:31PM 25.6386 -80.5508 89° East 96 110 1,600 -60 Climbing Miami Center
07:32PM 25.6408 -80.5186 86° East 94 108 1,400 -360 Descending Miami Center
07:34PM 25.6422 -80.4892 87° East 93 107 900 -480 Descending Miami Center
07:35PM 25.6422 -80.4656 90° East 78 90 500 -420 Descending Miami Center
07:37PM 25.6476 -80.4332 72° East  Level Estimated